This demonstration page uses our WeatherBlox Daily Observations layout. Learn more.

Left ArrowRight Arrow

41.55636, -103.73856

Hourly Observations for August 23, 2021

Temp ( °F °C ) Dew Point ( °F °C ) Humidity (%) Winds ( mph kmh ) Pressure ( in mb ) Visibility ( mi km ) Precip ( " mm )
12:58 am 00:58 Clear 64 17.8 35 1.5 34 34 Calm 29.85 1011 10 16 0.00 0.00
1:58 am 01:58 Clear 59 15.1 37 2.7 44 44 WNW 7 11 29.86 1011 10 16 0.00 0.00
2:58 am 02:58 Clear 58 14.3 38 3.1 47 47 SW 6 9 29.87 1011 10 16 0.00 0.00
3:58 am 03:58 Clear 54 12 37 2.9 54 54 SW 5 7 29.87 1012 10 16 0.00 0.00
4:58 am 04:58 Clear 53 11.8 39 3.7 58 58 SW 6 9 29.86 1011 10 16 0.00 0.00
5:58 am 05:58 Clear 55 13 40 4.3 56 56 NNE 6 9 29.86 1011 10 16 0.00 0.00
6:58 am 06:58 Sunny 55 12.5 42 5.7 64 64 Calm 29.89 1012 10 16 0.00 0.00
7:58 am 07:58 Sunny 60 15.6 44 6.8 56 56 Calm 29.90 1013 10 16 0.00 0.00
8:58 am 08:58 Sunny 73 22.5 51 10.5 47 47 SW 5 7 29.86 1011 10 16 0.00 0.00
9:58 am 09:58 Sunny 86 30.1 45 7.4 24 24 SSW 12 19 29.83 1010 10 16 0.00 0.00
10:58 am 10:58 Mostly Sunny 89 31.5 33 0.8 14 14 SW 13 20 29.83 1010 10 16 0.00 0.00
11:58 am 11:58 Sunny 91 33 30 -1.1 11 11 WNW 9 15 29.83 1010 10 16 0.00 0.00
12:58 pm 12:58 Sunny 91 32.8 31 -0.3 12 12 SW 10 17 29.80 1009 10 16 0.00 0.00
1:58 pm 13:58 Partly Cloudy 93 34 29 -1.5 10 10 SSW 10 17 29.78 1009 10 16 0.00 0.00
2:58 pm 14:58 Mostly Sunny 92 33.5 32 -0.1 12 12 WSW 7 11 29.77 1008 10 16 0.00 0.00
3:58 pm 15:58 Partly Cloudy 92 33.1 31 -0.3 12 12 S 14 22 29.76 1008 10 16 0.00 0.00
4:58 pm 16:58 Mostly Cloudy 91 32.6 33 0.8 13 13 SW 8 13 29.76 1008 10 16 0.00 0.00
5:58 pm 17:58 Partly Cloudy 89 31.4 32 -0.1 13 13 WNW 14 22 29.76 1008 10 16 0.00 0.00
6:58 pm 18:58 Sunny 82 27.8 40 4.2 22 22 NW 13 20 29.79 1009 10 16 0.00 0.00
7:58 pm 19:58 Mostly Clear 76 24.5 40 4.7 28 28 ESE 3 6 29.82 1010 10 16 0.00 0.00
8:58 pm 20:58 Partly Cloudy 75 23.9 40 4.4 28 28 SE 6 9 29.80 1009 10 16 0.00 0.00
9:58 pm 21:58 Mostly Clear 72 22 39 4 31 31 Calm 29.80 1009 10 16 0.00 0.00
10:58 pm 22:58 Clear 68 20.1 41 5.2 38 38 SSE 12 19 29.82 1010 10 16 0.00 0.00
11:58 pm 23:58 Clear 66 19 40 4.2 38 38 S 6 9 29.82 1010 10 16 0.00 0.00

Powered by AerisWeather